THORAD AGENA D DEB, 4736

Orbit data source: Space-Track

THORAD AGENA D DEB, 4736 is space debris in SSO originally from a launch on Wed, 08 Apr 1970 UTC launched from the Air Force Western Test Range (AFWTR). Debris objects in space refer to the collection of defunct objects orbiting the Earth. Examples of debris include non-operational satellites, rocket bodies, and fragments generated from explosions, collisions, or faulty payload assembly.

Loading next visibility...
Identifier
4736, 1970-025CK
Orbit
SSO
Country
Flag of USUS
Related business
Manufacturer
Unknown
Mission
Spacecraft
Bus & Motor
Unknown
Mass
Unknown
Launch date (UTC)
1970-04-08 (56 years ago)
Launch vehicle
Unknown
Launch site
Air Force Western Test Range (AFWTR)
Object type
Payload
Rocket body
Debris
Shape & HBR
Unknown shape, 0.1 m
Radar Cross Section
Medium (>0.1 m² and <1 m²)

Expand to show TLE details & history
Last TLE update: 7 hours ago

TLE from 7 hours ago
0 THORAD AGENA D DEB
1 04736U 70025CK  26132.92356489  .00000734  00000-0  49181-3 0  9994
2 04736 100.0630 153.2689 0083633 308.3245  51.0419 14.03039658841680
Epoch: 2026-05-12T22:09Z
TLE epoch observation values (Epoch: 2026-05-12T22:09:56.006Z)
Latitude
-0.00012°
Longitude
-49.90541°
Altitude
848.252 km
Speed
7.448 km/s
True Right ascension
10h 13m 04s
True Declination
0° 00' 00"
Sunlit
Object was in daylight at epoch
Visualization orbit readout
Latitude
Unknown
Longitude
Unknown
Altitude
Unknown
Speed
Unknown
Apparent Right ascension
Unknown
Apparent Declination
Unknown
Sunlit
N/A
Visualization observer readout
Local Sidereal Time
13:36:05
Azimuth
Unknown
Elevation
Unknown
Doppler factor
Unknown
Orbital elements
Apogee altitude
941.245 km
Perigee altitude
819.832 km
Semi-major axis
7,258.675 km
Eccentricity
0.00836
Inclination
100.063°
RAAN
153.2689°
Arg. of periapsis
308.3245°
True anomaly
51.79204°
Mean anomaly
51.0419°
Eccentric anomaly
51.41648°
Mean motion
3.5096 °/min
Orbital period
102.58 mins
BSTAR
0.00049181

Documentation

Showing up to 5 results
|